Change the Weather History Date:

Friday, March 9, 2012

  Actual Average Record
Temperature  
Mean Temperature 38 °F -  
Max Temperature 46 °F 51 °F 76 °F (1986)
Min Temperature 30 °F 28 °F 6 °F (2003)
Degree Days  
Heating Degree Days 27    
Moisture  
Dew Point 13 °F    
Average Humidity 40    
Maximum Humidity 65    
Minimum Humidity 17    
Precipitation  
Precipitation 0.00 in - - ()
Sea Level Pressure  
Sea Level Pressure 30.50 in    
Wind  
Wind Speed 6 mph (NNW)    
Max Wind Speed 10 mph    
Max Gust Speed 17 mph    
Visibility 10 miles    
Events      
Averages and records for this station are not official NWS values.
T = Trace of Precipitation, MM = Missing Value Source: NWS Daily Summary

Daily Weather History Graph

Daily Weather History Graph

Search for Another Location

Airport or City:

Trip Planner

Search our weather history database for the weather conditions in past years. The results will help you decide how hot, cold, wet, or windy it might be!

Date:

Astronomy

Mar. 09, 2012 Rise Set
Actual Time 6:26 AM CST 6:06 PM CST
Civil Twilight 5:58 AM CST 6:33 PM CST
Nautical Twilight 5:27 AM CST 7:05 PM CST
Astronomical Twilight 4:55 AM CST 7:37 PM CST
Moon 8:07 PM CST (3/9) 6:44 AM CST (3/9)
Length of Visible Light 12h 34m
Length of Day
11h 40m
Full, 97% of the Moon is Illuminated
Mar 9
Full
Mar 14
Last Quarter
Mar 22
New
Mar 30
First Quarter
Apr 6
Full

Hourly Weather History & Observations

Time (CST) Temp. Windchill Dew Point Humidity Pressure Visibility Wind Dir Wind Speed Gust Speed Precip Events Conditions
12:15 AM 33.8 °F 27.0 °F 21.2 °F 60% 30.38 in 10.0 mi WSW 8.1 mph - N/A   Clear
12:35 AM 33.8 °F 26.4 °F 21.2 °F 60% 30.38 in 10.0 mi SW 9.2 mph - N/A   Clear
12:55 AM 32.0 °F 24.2 °F 21.2 °F 64% 30.39 in 10.0 mi SW 9.2 mph - N/A   Clear
1:15 AM 33.8 °F 26.4 °F 21.2 °F 60% 30.39 in 10.0 mi WSW 9.2 mph - N/A   Clear
1:35 AM 32.0 °F 26.4 °F 21.2 °F 64% 30.41 in 10.0 mi WNW 5.8 mph - N/A   Clear
1:55 AM 33.8 °F 27.0 °F 19.4 °F 56% 30.42 in 10.0 mi West 8.1 mph - N/A   Clear
2:15 AM 33.8 °F 27.0 °F 19.4 °F 56% 30.43 in 10.0 mi WNW 8.1 mph - N/A   Clear
2:35 AM 33.8 °F 27.7 °F 19.4 °F 56% 30.43 in 10.0 mi WNW 6.9 mph - N/A   Clear
2:55 AM 33.8 °F 27.7 °F 21.2 °F 60% 30.44 in 10.0 mi WNW 6.9 mph - N/A   Clear
3:15 AM 35.6 °F 29.2 °F 21.2 °F 56% 30.44 in 10.0 mi WNW 8.1 mph - N/A   Clear
3:35 AM 33.8 °F 27.0 °F 21.2 °F 60% 30.45 in 10.0 mi NW 8.1 mph - N/A   Clear
3:55 AM 35.6 °F 28.0 °F 24.8 °F 65% 30.46 in 10.0 mi NNW 10.4 mph - N/A   Clear
4:15 AM 35.6 °F 29.2 °F 23.0 °F 60% 30.47 in 10.0 mi NNW 8.1 mph - N/A   Clear
4:35 AM 33.8 °F 27.0 °F 19.4 °F 56% 30.49 in 10.0 mi NNW 8.1 mph - N/A   Clear
4:55 AM 33.8 °F 29.6 °F 17.6 °F 52% 30.49 in 10.0 mi NNW 4.6 mph - N/A   Clear
5:15 AM 32.0 °F 28.7 °F 19.4 °F 60% 30.50 in 10.0 mi NNW 3.5 mph - N/A   Clear
5:35 AM 30.2 °F 26.7 °F 17.6 °F 60% 30.50 in 10.0 mi NNW 3.5 mph - N/A   Clear
5:55 AM 30.2 °F - 15.8 °F 55% 30.51 in 10.0 mi Calm Calm - N/A   Clear
6:15 AM 30.2 °F 26.7 °F 15.8 °F 55% 30.52 in 10.0 mi NW 3.5 mph - N/A   Clear
6:35 AM 30.2 °F 26.7 °F 15.8 °F 55% 30.53 in 10.0 mi NNW 3.5 mph - N/A   Clear
6:55 AM 30.2 °F 24.3 °F 17.6 °F 60% 30.54 in 10.0 mi NW 5.8 mph - N/A   Clear
7:15 AM 30.2 °F 23.4 °F 17.6 °F 60% 30.55 in 10.0 mi NW 6.9 mph - N/A   Clear
7:35 AM 32.0 °F 25.6 °F 15.8 °F 51% 30.56 in 10.0 mi NW 6.9 mph - N/A   Clear
7:55 AM 33.8 °F 27.0 °F 15.8 °F 48% 30.56 in 10.0 mi NW 8.1 mph - N/A   Clear
8:15 AM 33.8 °F 27.0 °F 14.0 °F 44% 30.57 in 10.0 mi NW 8.1 mph - N/A   Clear
8:55 AM 35.6 °F 28.6 °F 8.6 °F 33% 30.58 in 10.0 mi NNW 9.2 mph 17.3 mph N/A   Clear
9:15 AM 35.6 °F 28.6 °F 10.4 °F 35% 30.58 in 10.0 mi NNW 9.2 mph - N/A   Clear
9:35 AM 37.4 °F 31.4 °F 10.4 °F 33% 30.59 in 10.0 mi North 8.1 mph - N/A   Clear
9:55 AM 37.4 °F 31.4 °F 6.8 °F 28% 30.59 in 10.0 mi North 8.1 mph - N/A   Clear
10:15 AM 37.4 °F 32.1 °F 8.6 °F 30% 30.60 in 10.0 mi North 6.9 mph - N/A   Clear
10:35 AM 37.4 °F 33.8 °F 6.8 °F 28% 30.59 in 10.0 mi NW 4.6 mph - N/A   Clear
10:55 AM 39.2 °F 34.2 °F 6.8 °F 26% 30.59 in 10.0 mi WNW 6.9 mph - N/A   Clear
11:15 AM 41.0 °F 35.8 °F 6.8 °F 24% 30.59 in 10.0 mi North 8.1 mph - N/A   Clear
11:35 AM 39.2 °F - 3.2 °F 22% 30.58 in 10.0 mi Calm Calm - N/A   Clear
11:55 AM 42.8 °F 38.0 °F 6.8 °F 23% 30.57 in 10.0 mi NNW 8.1 mph - N/A   Clear
12:15 PM 42.8 °F - 3.2 °F 19% 30.57 in 10.0 mi Calm Calm - N/A   Clear
12:35 PM 42.8 °F 39.3 °F 3.2 °F 19% 30.56 in 10.0 mi NE 5.8 mph - N/A   Clear
12:55 PM 42.8 °F - 3.2 °F 19% 30.55 in 10.0 mi Calm Calm - N/A   Clear
1:15 PM 44.6 °F 43.1 °F 5.0 °F 20% 30.55 in 10.0 mi NNE 3.5 mph - N/A   Clear
1:35 PM 44.6 °F 43.1 °F 5.0 °F 20% 30.54 in 10.0 mi NW 3.5 mph - N/A   Clear
1:55 PM 44.6 °F 40.7 °F 5.0 °F 20% 30.53 in 10.0 mi NW 6.9 mph - N/A   Clear
2:15 PM 44.6 °F 42.2 °F 3.2 °F 18% 30.52 in 10.0 mi NW 4.6 mph - N/A   Clear
2:35 PM 46.4 °F 43.5 °F 3.2 °F 17% 30.52 in 10.0 mi North 5.8 mph - N/A   Clear
2:55 PM 46.4 °F - 6.8 °F 20% 30.52 in 10.0 mi Calm Calm - N/A   Clear
3:15 PM 46.4 °F - 3.2 °F 17% 30.52 in 10.0 mi Calm Calm - N/A   Clear
3:35 PM 46.4 °F 45.2 °F 3.2 °F 17% 30.51 in 10.0 mi ESE 3.5 mph - N/A   Clear
3:55 PM 46.4 °F - 5.0 °F 18% 30.50 in 10.0 mi Calm Calm - N/A   Clear
4:15 PM 46.4 °F 43.5 °F 5.0 °F 18% 30.49 in 10.0 mi East 5.8 mph - N/A   Clear
4:35 PM 46.4 °F 45.2 °F 5.0 °F 18% 30.49 in 10.0 mi ESE 3.5 mph - N/A   Clear
4:55 PM 46.4 °F - 6.8 °F 20% 30.49 in 10.0 mi Calm Calm - N/A   Clear
5:15 PM 44.6 °F - 6.8 °F 21% 30.49 in 10.0 mi Calm Calm - N/A   Clear
5:55 PM 44.6 °F 43.1 °F 10.4 °F 25% 30.49 in 10.0 mi ESE 3.5 mph - N/A   Clear
6:15 PM 42.8 °F 41.1 °F 12.2 °F 29% 30.48 in 10.0 mi ESE 3.5 mph - N/A   Clear
6:35 PM 41.0 °F 39.0 °F 12.2 °F 31% 30.48 in 10.0 mi SE 3.5 mph - N/A   Clear
6:55 PM 39.2 °F 35.9 °F 15.8 °F 39% 30.47 in 10.0 mi SE 4.6 mph - N/A   Clear
7:15 PM 39.2 °F - 19.4 °F 45% 30.47 in 10.0 mi Calm Calm - N/A   Clear
7:35 PM 39.2 °F 35.9 °F 17.6 °F 42% 30.47 in 10.0 mi SSE 4.6 mph - N/A   Clear
7:55 PM 39.2 °F - 17.6 °F 42% 30.47 in 10.0 mi Calm Calm - N/A   Clear
8:15 PM 37.4 °F 34.9 °F 19.4 °F 48% 30.47 in 10.0 mi ESE 3.5 mph - N/A   Clear
8:35 PM 35.6 °F 31.7 °F 17.6 °F 48% 30.47 in 10.0 mi SE 4.6 mph - N/A   Clear
8:55 PM 37.4 °F 32.8 °F 17.6 °F 45% 30.47 in 10.0 mi SE 5.8 mph - N/A   Clear
9:15 PM 37.4 °F 33.8 °F 19.4 °F 48% 30.46 in 10.0 mi SE 4.6 mph - N/A   Clear
9:35 PM 35.6 °F 30.7 °F 19.4 °F 52% 30.46 in 10.0 mi ESE 5.8 mph - N/A   Clear
9:55 PM 35.6 °F 30.7 °F 19.4 °F 52% 30.46 in 10.0 mi ESE 5.8 mph - N/A   Clear
10:15 PM 35.6 °F 31.7 °F 21.2 °F 56% 30.46 in 10.0 mi SE 4.6 mph - N/A   Clear
10:35 PM 35.6 °F 29.9 °F 21.2 °F 56% 30.46 in 10.0 mi SE 6.9 mph - N/A   Clear
10:55 PM 35.6 °F 29.9 °F 21.2 °F 56% 30.45 in 10.0 mi SE 6.9 mph - N/A   Clear
11:15 PM 37.4 °F 32.1 °F 21.2 °F 52% 30.45 in 10.0 mi SE 6.9 mph - N/A   Clear
11:35 PM 37.4 °F 31.4 °F 19.4 °F 48% 30.44 in 10.0 mi SE 8.1 mph - N/A   Clear
11:55 PM 37.4 °F 30.8 °F 19.4 °F 48% 30.44 in 10.0 mi SSE 9.2 mph - N/A   Clear